Weather History for Szeged, Hungary

Change the Weather History Date:

Friday, November 9, 2012

  Actual Average (LRAR) Record (LRAR)
Temperature  
Mean Temperature 46 °F -  
Max Temperature 54 °F 46 °F 69 °F (2013)
Min Temperature 37 °F 33 °F 30 °F (1998)
Degree Days  
Heating Degree Days 18    
Moisture  
Dew Point 40 °F    
Average Humidity 79    
Maximum Humidity 100    
Minimum Humidity 56    
Precipitation  
Precipitation 0.00 in 0.05 in - ()
Sea Level Pressure  
Sea Level Pressure 30.09 in    
Wind  
Wind Speed 7 mph ()    
Max Wind Speed 16 mph    
Max Gust Speed -    
Visibility 7.7 miles    
Events      
Averages and records for this station are not official NWS values.
T = Trace of Precipitation, MM = Missing Value Source: Averaged Metar Reports

Daily Weather History Graph

Daily Weather History Graph

Search for Another Location

Airport:

Trip Planner

Search our weather history database for the weather conditions in past years. The results will help you decide how hot, cold, wet, or windy it might be!

Date:

Astronomy

Nov. 09, 2012 Rise Set
Actual Time 6:32 AM CET 4:13 PM CET
Civil Twilight 6:00 AM CET 4:45 PM CET
Nautical Twilight 5:24 AM CET 5:21 PM CET
Astronomical Twilight 4:49 AM CET 5:57 PM CET
Moon 12:55 AM CET (11/9) 1:31 PM CET (11/9)
Length of Visible Light 10h 45m
Length of Day
9h 41m
Waning Crescent, 25% of the Moon is Illuminated
Nov 9
Waning Crescent
Nov 13
New
Nov 20
First Quarter
Nov 28
Full
Dec 6
Last Quarter

Hourly Weather History & Observations

Time (CET) Temp. Windchill Dew Point Humidity Pressure Visibility Wind Dir Wind Speed Gust Speed Precip Events Conditions
12:45 AM 44.6 °F 39.7 °F 39.2 °F 81% 30.09 in - SSE 9.2 mph - N/A   Clear
1:00 AM 44 °F - 39 °F 76% 30.09 in 12 mi SSE 8.9 mph - -   Partly Cloudy
1:45 AM 42.8 °F 38.0 °F 39.2 °F 87% 30.06 in - SE 8.1 mph - N/A   Clear
2:45 AM 41.0 °F 38.0 °F 37.4 °F 87% 30.06 in - South 4.6 mph - N/A   Clear
3:45 AM 41.0 °F 37.1 °F 39.2 °F 93% 30.06 in - SSE 5.8 mph - N/A   Clear
4:45 AM 41.0 °F 37.1 °F 39.2 °F 93% 30.04 in - SSE 5.8 mph - N/A   Clear
5:15 AM 39.2 °F 37.0 °F 37.4 °F 93% 30.06 in - South 3.5 mph - N/A   Clear
5:45 AM 41.0 °F 38.0 °F 39.2 °F 93% 30.06 in - South 4.6 mph - N/A   Clear
6:15 AM 41.0 °F 39.0 °F 39.2 °F 93% 30.06 in - SSE 3.5 mph - N/A   Clear
6:45 AM 41.0 °F 37.1 °F 39.2 °F 93% 30.04 in 5.0 mi SSE 5.8 mph - N/A   Overcast
7:00 AM 40 °F - 38 °F 92% 30.06 in 5 mi SSE 4.5 mph - -   Partly Cloudy
7:15 AM 41.0 °F 38.0 °F 39.2 °F 93% 30.06 in 5.0 mi SSE 4.6 mph - N/A   Overcast
7:45 AM 41.0 °F - 39.2 °F 93% 30.06 in 5.0 mi South 2.3 mph - N/A   Overcast
8:15 AM 42.8 °F 41.1 °F 41.0 °F 93% 30.06 in 5.0 mi SSW 3.5 mph - N/A   Overcast
8:45 AM 42.8 °F - 41.0 °F 93% 30.06 in 5.0 mi WSW 2.3 mph - N/A   Overcast
9:15 AM 46.4 °F 43.5 °F 41.0 °F 81% 30.09 in - West 5.8 mph - N/A   Clear
9:45 AM 46.4 °F 42.9 °F 41.0 °F 81% 30.09 in - WNW 6.9 mph - N/A   Clear
10:15 AM 50.0 °F - 42.8 °F 76% 30.06 in 6.2 mi West 5.8 mph - N/A   Scattered Clouds
10:45 AM 51.8 °F - 42.8 °F 71% 30.06 in 6.2 mi WNW 15.0 mph - N/A   Scattered Clouds
11:15 AM 51.8 °F - 42.8 °F 71% 30.06 in 6.2 mi NW 16.1 mph - N/A   Scattered Clouds
11:45 AM 53.6 °F - 42.8 °F 67% 30.06 in - NW 12.7 mph - N/A   Clear
12:15 PM 53.6 °F - 42.8 °F 67% 30.06 in - NW 12.7 mph - N/A   Clear
12:45 PM 53.6 °F - 41.0 °F 62% 30.06 in - WNW 11.5 mph - N/A   Clear
1:00 PM 53 °F - 42 °F 56% 30.07 in 19 mi WNW 11.2 mph - -   Partly Cloudy
1:15 PM 55.4 °F - 42.8 °F 63% 30.06 in - WNW 10.4 mph - N/A   Clear
1:45 PM 55.4 °F - 41.0 °F 58% 30.06 in - WNW 12.7 mph - N/A   Clear
2:15 PM 55.4 °F - 42.8 °F 63% 30.06 in - WNW 11.5 mph - N/A   Clear
2:45 PM 53.6 °F - 42.8 °F 67% 30.06 in - WNW 13.8 mph - N/A   Clear
3:15 PM 53.6 °F - 42.8 °F 67% 30.06 in - WNW 12.7 mph - N/A   Clear
3:45 PM 53.6 °F - 41.0 °F 62% 30.09 in 6.2 mi WNW 10.4 mph - N/A   Partly Cloudy
4:15 PM 51.8 °F - 41.0 °F 67% 30.09 in 6.2 mi WNW 8.1 mph - N/A   Partly Cloudy
4:45 PM 50.0 °F - 41.0 °F 71% 30.09 in 6.2 mi WNW 9.2 mph - N/A   Partly Cloudy
5:15 PM 50.0 °F - 39.2 °F 66% 30.12 in 6.2 mi WNW 8.1 mph - N/A   Partly Cloudy
5:45 PM 50.0 °F - 39.2 °F 66% 30.12 in - WNW 9.2 mph - N/A   Clear
6:15 PM 48.2 °F - 39.2 °F 71% 30.12 in - WNW 8.1 mph - N/A   Clear
6:45 PM 46.4 °F 43.5 °F 39.2 °F 76% 30.12 in - WNW 5.8 mph - N/A   Clear
7:00 PM 46 °F - 39 °F 70% 30.14 in 19 mi WNW 6.7 mph - -   Partly Cloudy
7:15 PM 46.4 °F 43.5 °F 41.0 °F 81% 30.15 in - NW 5.8 mph - N/A   Clear
7:45 PM 44.6 °F 41.4 °F 41.0 °F 87% 30.15 in - NW 5.8 mph - N/A   Clear
8:15 PM 44.6 °F 42.2 °F 39.2 °F 81% 30.15 in - NW 4.6 mph - N/A   Clear
8:45 PM 42.8 °F 38.0 °F 39.2 °F 87% 30.15 in - NW 8.1 mph - N/A   Clear
9:45 PM 42.8 °F 38.6 °F 39.2 °F 87% 30.15 in - North 6.9 mph - N/A   Clear
10:45 PM 41.0 °F 38.0 °F 39.2 °F 93% 30.15 in - North 4.6 mph - N/A   Clear
11:45 PM 37.4 °F 33.8 °F 37.4 °F 100% 30.18 in - NNW 4.6 mph - N/A   Clear